Weather History for Lamar, CO

Change the Weather History Date:

Tuesday, June 11, 2013

  Actual Average Record
Temperature  
Mean Temperature 91 °F 70 °F  
Max Temperature 111 °F 86 °F 111 °F (2013)
Min Temperature 70 °F 55 °F 43 °F (1975)
Degree Days  
Heating Degree Days 0 1  
Month to date heating degree days 16 15  
Since 1 June heating degree days 16 15  
Since 1 July heating degree days 5506 5555  
Cooling Degree Days 26 6  
Month to date cooling degree days 88 57  
Year to date cooling degree days 229 117  
Since 1 June cooling degree days 88 57  
Growing Degree Days 40 (Base 50)    
Moisture  
Dew Point 22 °F    
Average Humidity 16    
Maximum Humidity 29    
Minimum Humidity 3    
Precipitation  
Precipitation 0.00 in 0.09 in 1.16 in (1932)
Month to date precipitation 0.01 0.94  
Year to date precipitation 0.58 5.79  
Sea Level Pressure  
Sea Level Pressure 29.57 in    
Wind  
Wind Speed 17 mph (WSW)    
Max Wind Speed 35 mph    
Max Gust Speed 43 mph    
Visibility 10 miles    
Events      
T = Trace of Precipitation, MM = Missing Value Source: NWS Daily Summary

Daily Weather History Graph

Daily Weather History Graph

Search for Another Location

Airport:

Trip Planner

Search our weather history database for the weather conditions in past years. The results will help you decide how hot, cold, wet, or windy it might be!

Date:

Astronomy

Jun. 11, 2013 Rise Set
Actual Time 5:27 AM MDT 8:13 PM MDT
Civil Twilight 4:56 AM MDT 8:45 PM MDT
Nautical Twilight 4:16 AM MDT 9:24 PM MDT
Astronomical Twilight 3:32 AM MDT 10:09 PM MDT
Moon 8:10 AM MDT (6/11) 10:20 PM MDT (6/11)
Length of Visible Light 15h 49m
Length of Day
14h 46m
Waxing Crescent, 8% of the Moon is Illuminated
Jun 11
Waxing Crescent
Jun 16
First Quarter
Jun 23
Full
Jun 29
Last Quarter
Jul 8
New

Hourly Weather History & Observations

Time (MDT) Temp. Dew Point Humidity Pressure Visibility Wind Dir Wind Speed Gust Speed Precip Events Conditions
12:53 AM 82.0 °F 36.0 °F 19% 29.59 in 10.0 mi SSW 16.1 mph - N/A   Clear
1:53 AM 82.0 °F 39.0 °F 22% 29.58 in 10.0 mi South 16.1 mph - N/A   Clear
2:53 AM 78.1 °F 37.0 °F 23% 29.59 in 10.0 mi SSW 10.4 mph - N/A   Clear
3:53 AM 81.0 °F 37.0 °F 21% 29.57 in 10.0 mi SSW 20.7 mph - N/A   Clear
4:53 AM 77.0 °F 37.0 °F 24% 29.59 in 10.0 mi WSW 9.2 mph - N/A   Clear
5:53 AM 72.0 °F 37.0 °F 28% 29.62 in 10.0 mi West 3.5 mph - N/A   Clear
6:53 AM 77.0 °F 37.9 °F 24% 29.63 in 10.0 mi SW 4.6 mph - N/A   Clear
7:53 AM 87.1 °F 36.0 °F 16% 29.63 in 10.0 mi West 19.6 mph - N/A   Clear
8:53 AM 93.0 °F 28.0 °F 10% 29.63 in 10.0 mi WSW 20.7 mph - N/A   Clear
9:53 AM 97.0 °F 28.0 °F 9% 29.61 in 10.0 mi West 23.0 mph 29.9 mph N/A   Clear
10:53 AM 102.9 °F 23.0 °F 6% 29.62 in 10.0 mi West 19.6 mph 26.5 mph N/A   Clear
11:53 AM 107.1 °F 18.0 °F 4% 29.60 in 10.0 mi West 24.2 mph 31.1 mph N/A   Clear
12:53 PM 109.0 °F 18.0 °F 4% 29.58 in 10.0 mi West 18.4 mph 26.5 mph N/A   Clear
1:53 PM 109.0 °F 18.0 °F 4% 29.56 in 10.0 mi WSW 19.6 mph 39.1 mph N/A   Clear
2:53 PM 109.9 °F 18.0 °F 4% 29.53 in 10.0 mi SSW 20.7 mph 33.4 mph N/A   Clear
3:53 PM 109.9 °F 17.1 °F 4% 29.49 in 10.0 mi SSW 26.5 mph 33.4 mph N/A   Clear
4:53 PM 109.9 °F 12.0 °F 4% 29.47 in 9.0 mi SW 24.2 mph 36.8 mph N/A   Clear
5:53 PM 109.0 °F 9.0 °F 4% 29.47 in 10.0 mi SW 19.6 mph 29.9 mph N/A   Clear
6:53 PM 107.1 °F 8.1 °F 4% 29.46 in 10.0 mi WSW 26.5 mph 32.2 mph N/A   Clear
7:53 PM 99.0 °F 8.1 °F 4% 29.48 in 10.0 mi West 19.6 mph 27.6 mph N/A   Clear
8:53 PM 93.9 °F 3.9 °F 4% 29.50 in 10.0 mi West 15.0 mph - N/A   Clear
9:53 PM 88.0 °F 3.0 °F 4% 29.55 in 10.0 mi WSW 17.3 mph - N/A   Clear
10:53 PM 84.0 °F 7.0 °F 5% 29.58 in 10.0 mi West 10.4 mph - N/A   Clear
11:53 PM 77.0 °F 10.9 °F 8% 29.64 in 10.0 mi SSW 8.1 mph - N/A   Clear